Weather History for KFYG - October, 2012

Change the Weather History Date:

Sunday, October 7, 2012

  Actual Average (KSTL) Record (KSTL)
Temperature  
Mean Temperature 42 °F 62 °F  
Max Temperature 53 °F 72 °F 92 °F (1963)
Min Temperature 32 °F 52 °F 29 °F (1952)
Degree Days  
Heating Degree Days 22 5  
Month to date heating degree days 32  
Since 1 July heating degree days 73  
Cooling Degree Days 0 2  
Month to date cooling degree days 17  
Year to date cooling degree days 1618  
Moisture  
Dew Point 32 °F    
Average Humidity 71    
Maximum Humidity 100    
Minimum Humidity 35    
Precipitation  
Precipitation 0.00 in 0.11 in 1.74 in (1990)
Month to date precipitation 0.74  
Year to date precipitation 31.62  
Snow  
Snow - 0.00 in 0.00 in (2013)
Month to date snowfall 0.0  
Since 1 July snowfall 0.0  
Since 1 September snowfall 0.0  
Snow Depth -    
Sea Level Pressure  
Sea Level Pressure 30.23 in    
Wind  
Wind Speed 2 mph ()    
Max Wind Speed 14 mph    
Max Gust Speed 18 mph    
Visibility 10.0 miles    
Events      
T = Trace of Precipitation, MM = Missing Value Source: Averaged Metar Reports

Daily Weather History Graph

Daily Weather History Graph

Search for Another Location

Airport or City:

Trip Planner

Search our weather history database for the weather conditions in past years. The results will help you decide how hot, cold, wet, or windy it might be!

Date:

Astronomy

Oct. 07, 2012 Rise Set
Actual Time 7:05 AM CDT 6:36 PM CDT
Civil Twilight 6:39 AM CDT 7:03 PM CDT
Nautical Twilight 6:08 AM CDT 7:33 PM CDT
Astronomical Twilight 5:37 AM CDT 8:04 PM CDT
Moon 11:51 PM CDT (10/7) 1:40 PM CDT (10/7)
Length of Visible Light 12h 23m
Length of Day
11h 30m
Waning Gibbous, 56% of the Moon is Illuminated
Oct 7
Waning Gibbous
Oct 8
Last Quarter
Oct 15
New
Oct 21
First Quarter
Oct 29
Full

Hourly Weather History & Observations

Time (CDT) Temp. Windchill Dew Point Humidity Pressure Visibility Wind Dir Wind Speed Gust Speed Precip Events Conditions
12:15 AM 39.2 °F - 35.6 °F 87% 30.25 in 10.0 mi Calm Calm - N/A   Overcast
12:35 AM 39.2 °F - 35.6 °F 87% 30.25 in 10.0 mi Calm Calm - N/A   Overcast
12:55 AM 39.2 °F - 35.6 °F 87% 30.25 in 10.0 mi Calm Calm - N/A   Overcast
1:15 AM 39.2 °F - 35.6 °F 87% 30.25 in 10.0 mi Calm Calm - N/A   Overcast
1:35 AM 39.2 °F - 35.6 °F 87% 30.26 in 10.0 mi Calm Calm - N/A   Mostly Cloudy
1:55 AM 39.2 °F - 35.6 °F 87% 30.26 in 10.0 mi Calm Calm - N/A   Overcast
2:15 AM 37.4 °F - 35.6 °F 93% 30.26 in 10.0 mi Calm Calm - N/A   Mostly Cloudy
2:35 AM 39.2 °F - 35.6 °F 87% 30.26 in 10.0 mi Calm Calm - N/A   Mostly Cloudy
2:55 AM 39.2 °F - 35.6 °F 87% 30.26 in 10.0 mi Calm Calm - N/A   Overcast
3:15 AM 39.2 °F - 37.4 °F 93% 30.25 in 10.0 mi Calm Calm - N/A   Overcast
3:35 AM 39.2 °F - 35.6 °F 87% 30.25 in 10.0 mi Calm Calm - N/A   Overcast
3:55 AM 39.2 °F - 35.6 °F 87% 30.26 in 10.0 mi Calm Calm - N/A   Overcast
4:15 AM 39.2 °F - 35.6 °F 87% 30.26 in 10.0 mi Calm Calm - N/A   Overcast
4:35 AM 37.4 °F 34.9 °F 35.6 °F 93% 30.26 in 10.0 mi NNW 3.5 mph - N/A   Overcast
4:55 AM 39.2 °F 37.0 °F 35.6 °F 87% 30.26 in 10.0 mi North 3.5 mph - N/A   Overcast
5:15 AM 37.4 °F - 35.6 °F 93% 30.26 in 10.0 mi Calm Calm - N/A   Overcast
5:35 AM 37.4 °F - 35.6 °F 93% 30.26 in 10.0 mi Calm Calm - N/A   Scattered Clouds
5:55 AM 37.4 °F - 35.6 °F 93% 30.26 in 10.0 mi Calm Calm - N/A   Clear
6:15 AM 35.6 °F - 33.8 °F 93% 30.26 in 10.0 mi Calm Calm - N/A   Clear
6:35 AM 35.6 °F - 33.8 °F 93% 30.25 in 10.0 mi Calm Calm - N/A   Clear
6:55 AM 33.8 °F - 33.8 °F 100% 30.25 in 10.0 mi Calm Calm - N/A   Clear
7:15 AM 32.0 °F - 32.0 °F 100% 30.25 in 10.0 mi Calm Calm - N/A   Clear
7:35 AM 32.0 °F - 32.0 °F 100% 30.26 in 10.0 mi Calm Calm - N/A   Clear
7:55 AM 32.0 °F - 32.0 °F 100% 30.27 in 10.0 mi Calm Calm - N/A   Clear
8:15 AM 35.6 °F - 35.6 °F 100% 30.28 in 10.0 mi Calm Calm - N/A   Clear
8:55 AM 39.2 °F - 37.4 °F 93% 30.29 in 10.0 mi Calm Calm - N/A   Clear
9:15 AM 41.0 °F 36.4 °F 33.8 °F 76% 30.29 in 10.0 mi NW 6.9 mph - N/A   Clear
9:55 AM 42.8 °F 38.0 °F 32.0 °F 66% 30.30 in 10.0 mi NW 8.1 mph - N/A   Clear
10:15 AM 44.6 °F 40.2 °F 32.0 °F 61% 30.30 in 10.0 mi NW 8.1 mph - N/A   Clear
10:35 AM 46.4 °F 40.7 °F 30.2 °F 53% 30.29 in 10.0 mi WNW 12.7 mph 16.1 mph N/A   Clear
10:55 AM 46.4 °F 40.4 °F 28.4 °F 50% 30.29 in 10.0 mi WNW 13.8 mph 18.4 mph N/A   Clear
11:15 AM 46.4 °F 42.9 °F 28.4 °F 50% 30.29 in 10.0 mi NW 6.9 mph - N/A   Clear
11:35 AM 46.4 °F 41.5 °F 28.4 °F 50% 30.28 in 10.0 mi NW 10.4 mph - N/A   Partly Cloudy
11:55 AM 48.2 °F - 28.4 °F 46% 30.28 in 10.0 mi West 6.9 mph 18.4 mph N/A   Partly Cloudy
12:15 PM 48.2 °F - 28.4 °F 46% 30.27 in 10.0 mi WNW 13.8 mph 18.4 mph N/A   Partly Cloudy
12:35 PM 48.2 °F - 28.4 °F 46% 30.27 in 10.0 mi WSW 6.9 mph 17.3 mph N/A   Clear
12:55 PM 48.2 °F - 26.6 °F 43% 30.26 in 10.0 mi NW 6.9 mph - N/A   Clear
1:15 PM 50.0 °F - 28.4 °F 43% 30.25 in 10.0 mi WNW 10.4 mph 17.3 mph N/A   Clear
1:35 PM 50.0 °F - 28.4 °F 43% 30.24 in 10.0 mi NNW 9.2 mph - N/A   Clear
1:55 PM 50.0 °F - 28.4 °F 43% 30.23 in 10.0 mi WNW 12.7 mph - N/A   Clear
2:15 PM 51.8 °F - 28.4 °F 41% 30.22 in 10.0 mi WNW 4.6 mph - N/A   Clear
2:35 PM 51.8 °F - 28.4 °F 41% 30.21 in 10.0 mi North 5.8 mph - N/A   Clear
2:55 PM 53.6 °F - 28.4 °F 38% 30.21 in 10.0 mi WNW 9.2 mph - N/A   Clear
3:15 PM 53.6 °F - 26.6 °F 35% 30.20 in 10.0 mi West 6.9 mph - N/A   Clear
3:35 PM 53.6 °F - 28.4 °F 38% 30.19 in 10.0 mi WSW 6.9 mph - N/A   Clear
3:55 PM 53.6 °F - 28.4 °F 38% 30.19 in 10.0 mi SW 5.8 mph - N/A   Clear
4:15 PM 53.6 °F - 28.4 °F 38% 30.19 in 10.0 mi West 8.1 mph - N/A   Clear
4:35 PM 53.6 °F - 26.6 °F 35% 30.18 in 10.0 mi SSW 4.6 mph - N/A   Clear
4:55 PM 53.6 °F - 26.6 °F 35% 30.17 in 10.0 mi Calm Calm - N/A   Clear
5:15 PM 53.6 °F - 26.6 °F 35% 30.17 in 10.0 mi West 6.9 mph - N/A   Clear
5:35 PM 53.6 °F - 26.6 °F 35% 30.16 in 10.0 mi WNW 6.9 mph - N/A   Clear
5:55 PM 53.6 °F - 26.6 °F 35% 30.17 in 10.0 mi Calm Calm - N/A   Clear
6:15 PM 51.8 °F - 26.6 °F 38% 30.17 in 10.0 mi Calm Calm - N/A   Clear
6:35 PM 50.0 °F - 32.0 °F 50% 30.17 in 10.0 mi Calm Calm - N/A   Clear
6:55 PM 48.2 °F - 30.2 °F 50% 30.17 in 10.0 mi Calm Calm - N/A   Clear
7:15 PM 44.6 °F - 35.6 °F 71% 30.17 in 10.0 mi Calm Calm - N/A   Clear
7:35 PM 44.6 °F - 35.6 °F 71% 30.18 in 10.0 mi Calm Calm - N/A   Clear
7:55 PM 42.8 °F - 35.6 °F 76% 30.19 in 10.0 mi Calm Calm - N/A   Clear
8:15 PM 41.0 °F - 35.6 °F 81% 30.19 in 10.0 mi Calm Calm - N/A   Clear
8:35 PM 41.0 °F - 35.6 °F 81% 30.20 in 10.0 mi Calm Calm - N/A   Clear
8:55 PM 39.2 °F - 33.8 °F 81% 30.20 in 10.0 mi Calm Calm - N/A   Clear
9:15 PM 37.4 °F - 35.6 °F 93% 30.20 in 10.0 mi Calm Calm - N/A   Clear
9:35 PM 39.2 °F - 35.6 °F 87% 30.20 in 10.0 mi Calm Calm - N/A   Clear
9:55 PM 37.4 °F - 33.8 °F 87% 30.20 in 10.0 mi Calm Calm - N/A   Clear
10:15 PM 37.4 °F - 35.6 °F 93% 30.20 in 10.0 mi Calm Calm - N/A   Clear
10:35 PM 35.6 °F - 32.0 °F 87% 30.20 in 10.0 mi Calm Calm - N/A   Clear
10:55 PM 35.6 °F - 33.8 °F 93% 30.20 in 10.0 mi Calm Calm - N/A   Partly Cloudy
11:15 PM 35.6 °F - 33.8 °F 93% 30.20 in 10.0 mi Calm Calm - N/A   Clear
11:35 PM 35.6 °F - 33.8 °F 93% 30.19 in 10.0 mi Calm Calm - N/A   Clear
11:55 PM 35.6 °F - 33.8 °F 93% 30.19 in 10.0 mi Calm Calm - N/A   Clear